sat.trackr.live / text

‹ back to catalog

STARLINK-30297

NORAD 57682 · 2023-124V

PAYLOAD ACTIVE UNKNOWN

§ Identity

Operator
Country
US
Launch date
2023-08-22
Launch site
AFWTR
Launch vehicle
Mass (kg)
RCS (m²)

Purposes: comms

External: N2YO · Heavens-Above · Gunter

§ Orbital elements

Epoch: 2026-09-20T21:28:47.687232Z

Period
93.84 min
Inclination
53.1616°
Eccentricity
0.0001247
Mean motion
15.34447302 rev/d
Perigee alt
461.7 km
Apogee alt
463.4 km
Semi-major
6,840.7 km
B*
7.9381e-4
RAAN
19.5136°
Arg perigee
108.5503°
Mean anomaly
251.5636°
Rev number
17,346

§ Raw data

STARLINK-302971 57682U 23124V   26263.89499638  .00026579  00000+0  79381-3 0  99942 57682  53.1616  19.5136 0001247 108.5503 251.5636 15.34447302173465

JSON: /api/v1/satellites/57682 · /tle

For live sub-satellite position, see the globe view (requires WebGL).

§ Visibility from observer

Set your observer location to see the next 7 days of passes ≥ 10°. The values pass through the URL so the page stays shareable.

No JS? Fill the form by hand. The geolocation button needs JavaScript.